ECMWFFLT1_700_spd_096.txt.gz
Wind_Speed
12 12 13 14 13 12 12 12 12 12 13 14 14 14 14 15 14 14 15 15 15 15 14 13 13 13 13 13 12 11 10 10 10 10 11 11 10 9 9 9 9 8 7 7 6 6 7 7 6 4 3 3 3 3 3 3 4 4 3 2 2 2 2
14 14 14 15 15 14 14 14 12 12 14 14 13 14 14 14 13 14 15 15 15 15 14 14 14 14 13 13 12 11 11 11 11 12 12 11 11 11 11 10 9 8 7 6 5 4 5 5 4 3 3 4 4 4 4 4 5 5 4 3 2 2 2
15 15 16 16 16 16 15 15 14 13 15 15 14 13 13 14 13 13 14 15 15 15 14 14 14 14 13 12 11 11 11 12 12 12 12 12 13 12 11 10 9 8 8 8 7 7 7 6 5 4 3 4 5 4 3 4 5 5 4 3 3 3 3
17 16 16 16 17 17 15 14 14 14 15 15 14 13 13 14 14 13 14 15 15 15 15 14 14 14 13 12 12 11 11 12 12 12 13 13 13 12 11 10 9 9 9 10 10 9 8 8 7 5 4 4 5 4 3 3 4 3 3 3 3 4 3
19 18 17 16 18 18 15 14 14 14 14 14 14 13 12 13 14 13 14 15 14 15 15 14 14 14 13 13 13 12 12 12 12 12 13 13 13 12 11 10 10 10 10 12 12 10 8 7 6 5 5 4 5 4 3 4 3 3 4 4 4 3 3
20 18 17 18 19 19 16 15 14 14 14 13 13 12 12 13 13 13 14 14 14 15 15 14 14 14 14 14 13 13 13 13 13 13 13 13 13 12 12 12 11 11 12 12 12 10 9 7 6 6 6 5 5 4 4 4 3 3 5 5 5 4 4
20 19 19 19 20 20 18 16 14 14 14 13 12 12 13 14 14 14 15 15 15 15 15 14 14 14 14 14 14 14 14 14 14 14 14 14 13 13 13 13 12 12 12 13 12 11 10 8 8 7 7 7 6 4 4 4 3 4 5 5 5 5 6
21 21 21 21 21 21 19 17 15 15 14 14 14 14 15 15 15 16 16 16 15 15 14 14 14 13 13 13 13 14 15 15 15 15 15 14 13 13 13 13 12 12 13 13 13 12 11 10 9 8 8 8 7 6 6 5 5 6 5 4 4 5 5
24 24 23 23 23 21 20 19 17 16 16 16 16 16 16 16 17 17 16 15 15 14 14 14 13 13 12 12 12 13 14 14 14 15 14 13 13 13 13 13 12 12 13 14 13 12 11 11 10 9 9 9 8 7 7 7 7 8 7 6 6 6 6
27 26 23 23 24 22 21 20 19 19 19 19 18 16 16 17 17 17 16 15 14 14 15 14 13 13 13 13 13 13 14 14 14 13 12 12 12 12 12 12 12 12 13 13 13 12 12 11 11 10 10 10 9 9 8 7 7 8 8 7 7 7 6
28 26 23 25 26 23 21 22 23 22 21 20 18 17 16 17 17 17 15 14 14 15 15 14 14 14 14 14 14 13 13 13 13 13 12 11 12 12 12 12 12 12 13 13 13 12 12 11 11 11 10 9 9 9 8 8 8 8 8 8 8 7 6
29 27 25 26 27 25 23 24 23 20 18 17 17 16 16 16 17 17 16 15 15 16 17 16 16 15 14 14 13 12 12 12 12 12 11 11 11 11 11 12 12 12 12 13 13 12 12 12 11 11 9 8 8 8 9 9 9 8 7 7 7 7 6
30 29 26 25 27 26 23 20 19 18 17 18 18 16 16 17 18 18 17 17 17 18 18 17 16 15 14 13 12 12 12 11 11 11 11 11 11 11 11 11 12 12 12 12 12 12 12 12 11 10 8 8 7 8 9 10 9 7 7 7 7 6 6
29 26 23 25 26 22 18 17 18 20 20 18 18 17 18 18 19 19 19 18 18 18 18 17 15 14 14 13 13 13 13 12 11 11 12 12 12 12 12 11 11 11 11 12 12 12 11 11 10 9 8 8 7 8 10 10 8 7 7 7 6 6 6
25 23 24 27 23 17 17 19 18 20 20 19 19 19 20 19 19 19 20 19 19 18 17 16 14 14 14 14 14 14 13 12 12 12 12 12 12 13 12 11 10 10 10 11 11 11 10 10 9 8 8 8 8 9 11 10 8 7 7 7 7 7 7
21 23 24 25 20 16 19 20 19 21 21 21 21 22 21 20 19 19 20 20 19 18 16 15 15 14 14 14 15 14 13 12 12 12 12 12 13 12 11 11 10 10 10 11 10 10 9 9 8 7 7 8 8 9 10 10 9 8 8 8 8 8 8
19 21 22 21 18 18 20 19 20 22 23 23 23 23 22 21 19 18 20 20 19 17 16 15 14 14 14 15 15 14 13 12 11 12 12 13 13 12 11 10 10 10 10 10 10 9 9 9 7 6 7 7 7 8 9 9 10 10 10 10 9 9 9
18 19 18 17 18 19 19 20 21 22 23 24 24 23 23 22 20 20 20 20 19 17 15 14 14 14 14 14 14 14 14 13 12 12 12 13 12 11 10 9 9 9 10 9 9 8 8 7 6 5 6 7 7 8 8 9 9 10 10 10 9 8 7
17 16 16 16 17 18 18 20 22 23 24 24 25 25 24 23 22 21 20 20 18 16 15 15 15 15 15 14 13 14 14 13 12 12 13 13 12 12 11 9 9 9 9 9 8 7 6 6 6 5 6 7 7 6 6 6 7 7 8 8 7 6 5
16 16 17 17 17 16 18 21 23 24 25 25 26 26 26 24 23 23 21 20 18 17 17 17 17 17 15 14 13 13 13 12 12 12 13 13 12 12 11 10 9 9 9 8 7 6 6 6 7 6 6 6 6 5 6 6 5 5 5 5 5 5 5
18 18 18 17 17 17 18 21 24 24 24 25 25 26 27 26 26 26 24 20 19 18 18 19 18 17 15 13 13 12 11 10 10 11 12 12 12 11 11 10 9 8 8 8 8 7 7 8 8 7 7 7 6 6 7 7 7 6 5 5 6 7 6
18 19 18 17 17 17 18 21 23 23 23 24 24 25 28 27 27 29 25 21 19 19 19 19 18 16 15 14 13 11 9 8 9 10 10 10 10 11 11 11 10 9 9 9 8 8 8 9 9 9 9 8 8 8 8 8 8 7 7 7 8 9 9
15 17 16 16 18 18 17 20 22 22 23 24 24 25 27 27 28 29 25 21 20 20 21 20 19 17 16 15 12 10 9 9 9 9 9 10 10 11 11 11 10 10 10 9 9 9 9 9 10 10 10 9 9 9 9 9 8 8 8 8 9 10 11
12 13 14 15 17 17 17 18 20 21 23 24 24 26 27 28 30 28 24 22 22 22 22 20 19 18 17 15 12 10 10 9 9 10 11 11 11 11 11 11 11 11 10 10 10 10 10 10 10 10 10 10 10 10 11 10 10 10 10 11 11 12 13
9 10 11 13 15 16 17 18 18 20 23 24 24 26 28 29 29 26 23 23 23 23 23 22 20 19 17 15 13 12 12 11 11 12 12 13 12 12 12 12 11 11 11 11 11 11 11 11 11 11 11 11 11 12 12 12 12 12 13 13 14 14 15
8 7 9 12 14 15 16 17 17 18 21 23 25 27 27 27 26 24 23 24 24 25 24 23 21 20 18 16 15 14 14 14 14 14 14 14 13 13 13 13 12 11 11 11 11 11 11 10 10 11 11 11 12 12 13 13 14 14 15 16 16 16 17
8 8 10 11 11 13 14 16 17 18 21 25 25 25 25 25 24 23 23 24 25 26 25 22 21 20 18 16 16 16 16 16 17 16 16 15 14 14 13 12 11 11 11 11 11 11 10 10 9 9 10 11 12 13 13 14 15 16 17 18 19 19 19
7 7 10 12 12 13 14 15 18 20 23 26 26 24 24 24 23 23 24 24 25 26 24 22 21 20 19 18 18 18 18 18 18 18 17 16 14 13 12 12 11 11 11 12 12 12 11 10 10 9 10 11 12 13 14 14 15 16 18 19 20 21 22
6 6 8 12 13 13 15 17 20 22 25 25 25 24 23 23 22 22 23 23 24 25 24 23 22 21 20 19 18 18 18 19 19 18 17 16 15 14 14 13 12 11 12 12 13 14 14 14 13 13 14 14 15 16 16 16 17 18 19 20 21 22 23
5 7 6 8 10 10 13 17 20 21 22 22 23 23 22 21 22 22 21 21 22 23 23 24 23 22 20 19 18 18 18 19 19 19 18 18 17 17 16 16 15 14 14 14 15 16 16 17 17 18 18 19 20 20 20 20 20 20 21 21 22 23 23
4 8 7 3 9 11 13 14 17 21 21 19 20 21 20 20 21 20 20 21 22 23 24 24 23 22 21 20 18 18 19 19 20 20 19 19 18 18 19 18 16 16 16 16 17 18 19 20 21 21 22 23 24 24 24 23 23 22 22 22 22 22 22
3 6 9 6 5 12 16 17 19 21 22 21 20 20 19 20 21 20 21 21 22 23 23 23 22 21 20 20 18 17 18 19 21 21 21 21 20 20 20 19 17 17 18 18 20 21 22 24 25 25 25 25 26 27 27 26 25 24 22 21 21 21 22
5 4 5 6 5 6 13 17 20 21 21 21 22 20 19 21 22 22 22 22 22 22 21 21 20 20 19 18 17 17 18 20 21 21 20 22 23 22 20 19 19 19 20 21 22 24 25 27 28 28 28 29 30 30 28 25 24 22 21 21 21 22 24
8 6 5 4 6 7 8 10 16 20 20 20 23 23 22 22 22 22 23 23 22 20 20 21 22 22 21 20 18 18 19 21 20 18 17 19 21 20 19 18 18 19 21 22 24 26 27 28 28 29 30 30 28 24 21 20 20 20 20 21 23 24 25
10 9 8 5 4 7 9 8 10 16 18 21 25 26 23 22 23 24 25 24 23 22 21 23 25 26 27 25 23 22 22 21 21 21 20 20 21 20 20 20 20 22 23 24 26 28 30 31 32 31 29 25 19 16 16 17 19 20 22 23 25 26 27
9 7 6 4 4 8 8 7 8 11 15 19 22 23 23 23 24 26 28 28 27 26 25 24 26 27 27 25 23 23 23 23 23 23 22 21 21 22 22 23 23 24 25 26 28 29 29 29 28 25 20 17 16 17 18 19 21 23 25 26 27 28 28
7 6 5 4 5 8 10 10 9 10 11 13 18 21 23 25 25 27 29 29 26 25 25 25 26 28 27 25 23 23 23 23 23 23 22 22 23 23 23 24 25 26 26 25 23 21 18 16 15 14 15 16 18 20 21 22 24 25 26 26 26 26 25

ECMWFFLT1_700_spd_102.txt.gz
Wind_Speed
12 14 14 14 14 14 13 13 13 13 13 12 11 10 9 10 13 13 14 15 17 18 18 20 20 19 19 19 20 20 20 20 18 17 18 18 18 17 16 15 14 13 12 11 10 9 7 7 7 8 8 9 9 9 9 8 7 7 6 5 5 5 4
16 17 17 17 17 16 16 17 16 15 15 14 12 11 10 10 12 13 14 16 17 19 20 20 19 18 18 18 19 20 20 18 17 18 19 19 19 19 18 17 16 14 13 12 11 10 9 8 8 9 8 8 9 9 9 8 7 7 6 5 6 5 4
19 20 20 20 19 19 19 19 19 19 18 16 15 14 13 12 13 13 15 17 17 19 19 19 19 18 18 19 20 20 19 19 19 19 19 20 20 19 18 17 15 14 13 13 12 11 10 9 10 9 8 8 9 8 8 7 7 8 7 7 7 6 5
23 23 23 22 22 22 21 21 21 21 20 19 18 16 15 16 16 15 17 18 18 19 18 18 19 19 19 20 22 21 21 21 20 20 20 21 20 19 17 15 14 14 13 12 12 11 10 9 9 8 7 8 8 8 7 7 8 9 9 8 8 7 7
25 26 26 25 24 25 25 25 24 22 20 20 20 17 15 17 18 18 19 19 18 19 18 18 20 20 19 21 23 23 23 23 22 22 22 22 20 18 16 15 14 14 13 12 11 11 9 8 8 7 7 7 7 7 7 7 9 11 10 10 9 8 8
28 28 28 29 29 28 27 28 26 23 21 20 21 19 16 17 19 19 20 20 19 20 20 20 21 21 20 21 23 23 24 25 23 22 22 21 19 16 15 15 15 14 14 13 11 9 9 8 8 8 8 8 7 7 7 8 9 10 11 10 10 9 9
29 29 30 33 34 32 30 29 28 26 23 22 21 20 18 18 19 20 20 21 22 21 21 21 22 22 21 21 23 24 25 25 23 21 20 19 17 16 15 16 16 15 14 12 10 9 9 9 10 9 9 9 8 7 8 9 9 10 11 11 11 10 10
30 30 31 34 36 34 31 30 29 27 24 23 21 20 20 20 20 21 22 23 24 23 22 22 22 22 21 21 23 25 25 24 22 20 19 17 16 16 16 16 15 14 13 11 9 9 9 10 10 10 10 10 9 8 9 9 10 11 11 11 11 11 11
32 32 32 34 36 34 32 29 28 26 24 22 21 20 20 21 22 24 24 24 24 24 23 22 22 22 21 22 24 24 23 22 20 19 18 16 15 16 17 16 14 14 13 11 9 9 9 10 10 11 12 12 11 10 9 9 10 11 10 10 10 11 11
31 32 33 35 35 33 32 29 27 26 25 23 22 21 21 21 23 25 25 23 23 22 22 20 20 20 21 22 22 21 20 18 17 17 17 16 15 16 17 15 14 14 12 10 9 9 10 10 10 11 12 12 11 10 9 9 10 11 10 10 10 11 11
27 30 32 34 33 31 30 29 28 27 26 24 22 21 22 22 23 25 26 24 22 21 20 19 19 20 20 20 19 18 17 16 16 17 16 16 15 16 16 15 14 13 11 10 10 10 10 11 11 11 12 12 11 10 8 8 10 10 9 10 10 10 10
25 27 28 30 31 29 29 29 28 26 25 25 23 20 20 21 23 25 26 24 23 21 20 20 20 20 20 19 18 18 17 16 16 16 16 15 15 15 15 14 14 13 11 11 11 11 11 12 11 11 12 13 12 11 9 9 10 9 8 9 10 9 9
25 24 23 25 26 26 27 28 26 24 23 24 23 19 18 19 22 24 24 23 22 20 20 20 20 20 21 20 18 17 17 16 16 15 15 14 14 14 14 13 13 12 12 12 12 12 12 12 12 12 13 13 12 11 9 8 10 9 8 8 9 8 9
25 20 18 20 23 24 25 25 23 21 20 21 21 19 17 18 20 22 24 23 20 20 21 20 20 20 20 19 17 16 16 16 16 15 15 14 13 13 13 13 13 12 12 13 13 13 13 12 12 13 13 13 12 11 8 7 9 9 8 8 8 8 8
22 16 14 16 20 22 23 23 21 19 19 19 18 18 18 18 19 22 24 24 21 21 21 20 20 21 20 20 19 17 16 17 18 17 16 14 14 14 14 14 13 13 13 13 13 12 12 12 12 12 13 13 12 10 8 8 8 8 7 7 8 8 8
18 12 11 13 15 17 20 21 20 20 20 19 18 18 18 18 19 21 23 25 24 22 21 21 21 21 20 21 20 19 19 20 21 19 17 15 15 15 15 15 14 14 14 14 13 12 13 13 12 12 12 12 11 9 8 8 7 7 7 7 7 8 8
15 12 11 10 9 14 18 18 19 20 21 19 19 20 20 19 19 21 23 25 25 23 23 23 23 21 20 21 21 21 22 23 23 21 18 17 16 16 16 16 15 15 14 14 13 13 13 13 13 13 13 12 10 8 7 7 8 8 8 7 7 8 8
13 11 11 9 4 7 13 15 17 20 21 20 21 21 21 20 20 21 23 25 25 24 25 25 24 22 21 21 22 22 23 24 23 20 18 16 16 16 16 16 15 15 15 14 13 13 13 13 13 13 12 11 10 9 8 8 8 8 8 8 8 9 9
13 12 11 9 4 2 7 12 15 18 19 20 21 22 23 22 22 23 24 25 25 25 26 25 24 23 22 21 22 22 23 24 21 17 16 16 16 17 16 16 15 15 15 14 14 13 13 13 13 13 12 11 11 10 9 8 8 8 8 8 8 9 9
13 12 12 11 8 5 6 10 13 15 17 19 22 23 24 24 26 27 27 26 24 23 23 23 21 20 21 21 23 23 23 22 18 15 16 17 17 17 16 16 16 15 15 15 15 14 14 14 14 13 13 12 11 10 9 9 8 8 9 9 8 8 8
12 12 12 12 11 10 11 12 14 15 16 19 22 23 23 25 27 27 24 22 22 21 21 20 19 19 20 22 23 21 19 18 16 16 17 17 17 16 16 16 16 16 17 16 16 16 15 15 15 14 13 12 11 10 9 10 9 10 10 10 9 8 8
11 11 11 12 13 14 15 16 17 18 18 19 21 22 23 25 25 24 23 22 22 22 21 21 21 20 19 18 16 15 14 16 16 17 17 17 17 16 16 16 16 16 15 14 14 14 14 14 14 14 13 12 12 11 10 10 10 10 11 11 10 9 9
11 10 10 12 13 15 18 19 20 20 20 21 21 22 23 23 23 24 25 25 24 22 22 23 23 21 17 14 12 12 14 16 16 17 18 17 17 17 16 16 15 15 14 13 13 13 12 12 12 12 13 13 13 12 12 11 11 12 11 11 11 11 10
10 8 8 10 12 15 17 19 20 20 21 21 21 21 22 22 22 24 25 26 24 21 22 24 24 22 18 15 14 15 15 16 17 17 18 17 17 17 17 17 16 15 15 14 14 14 14 13 13 14 14 14 14 14 13 13 13 13 13 12 12 12 11
10 9 8 9 10 13 16 17 17 17 18 20 19 18 19 20 22 23 23 24 23 22 23 23 22 21 19 17 17 17 17 17 17 17 18 17 17 17 18 19 18 16 16 15 15 16 16 15 15 16 16 16 15 15 15 15 15 15 14 14 13 13 13
9 9 10 10 9 10 14 15 15 14 15 17 17 18 18 18 20 21 21 22 23 24 25 24 22 20 18 18 18 18 18 19 19 18 18 18 18 18 19 19 18 17 17 16 16 17 17 16 16 17 17 16 16 16 16 16 16 16 16 15 15 15 14
9 9 10 10 9 9 10 12 12 13 14 15 16 17 17 17 18 18 19 21 23 24 24 24 22 19 17 18 19 19 18 18 18 17 18 19 19 20 20 20 19 18 18 17 17 18 18 18 17 17 17 16 16 16 16 16 16 16 16 16 15 15 14
10 9 10 10 10 8 8 9 10 11 12 13 14 14 13 15 15 15 17 21 22 22 22 20 19 17 17 18 20 20 19 18 17 17 17 18 18 19 20 20 20 20 19 18 19 19 19 18 18 17 17 17 17 16 16 16 15 15 15 14 14 14 14
11 10 10 11 11 9 7 8 10 10 10 11 12 11 11 15 17 18 20 21 20 21 21 20 19 17 17 19 19 19 19 19 18 18 18 18 19 19 20 21 21 21 20 19 20 20 19 19 18 18 18 18 17 16 15 15 15 14 14 14 14 15 16
10 11 11 10 10 9 5 5 8 10 10 8 8 10 14 18 19 19 20 21 20 20 19 20 21 18 18 20 20 18 20 22 21 21 20 19 19 20 20 21 21 21 20 20 21 21 20 20 20 19 19 19 18 17 16 16 16 15 15 16 16 17 18
10 10 9 8 8 8 6 4 6 7 8 6 6 11 18 20 17 15 16 17 20 22 20 19 20 19 19 21 21 20 22 22 21 21 21 20 20 20 21 21 21 20 21 21 22 22 21 21 20 20 20 20 19 19 18 19 18 18 18 19 19 20 21
10 8 6 5 5 7 7 6 6 4 6 9 9 12 15 17 16 16 15 14 16 20 19 16 17 19 20 21 21 21 21 20 19 19 20 21 21 21 22 22 22 22 22 22 22 22 22 22 21 21 21 21 21 20 20 20 20 20 21 22 23 24 25
9 6 4 4 4 6 8 8 8 5 3 8 11 11 11 14 16 16 14 13 15 17 17 15 16 18 20 21 20 21 21 20 20 21 20 21 22 21 22 23 23 24 25 24 24 23 23 23 23 23 23 22 22 21 21 22 22 23 25 26 26 26 26
7 4 3 4 4 5 8 9 10 7 2 5 8 8 9 12 16 17 15 15 16 16 15 15 16 17 19 20 20 20 20 19 20 21 21 21 21 21 21 23 24 26 27 27 26 25 24 24 24 24 24 24 23 23 23 23 25 27 29 29 28 27 24
5 4 3 4 5 5 6 8 10 8 3 2 4 4 5 10 16 19 18 16 16 15 13 14 15 16 17 18 18 19 19 19 19 20 19 19 19 20 22 24 26 26 27 28 28 26 25 26 26 26 25 24 23 23 23 25 27 28 28 25 23 22 19
5 4 2 4 5 7 7 7 8 7 5 1 2 2 3 8 14 18 19 19 19 18 16 14 14 15 15 16 16 17 18 19 19 20 19 19 21 23 25 25 25 24 25 27 27 28 29 29 29 28 26 23 22 21 22 23 22 20 18 17 16 16 15
7 5 3 2 5 7 8 7 5 4 4 2 2 2 2 7 12 15 17 17 18 19 18 17 16 16 16 17 17 17 18 19 20 22 22 21 22 23 26 28 27 27 26 27 28 29 30 30 30 29 26 22 20 20 20 19 16 14 13 13 13 14 15

ECMWFFLT1_700_spd_105.txt.gz
Wind_Speed
19 18 18 19 19 20 20 20 20 20 19 19 19 19 19 20 20 18 17 19 19 18 17 17 17 19 21 20 19 18 20 20 19 19 20 20 20 18 18 18 18 17 17 15 14 13 13 13 12 12 11 11 11 12 12 11 9 8 9 8 7 7 6
23 22 22 22 22 23 23 23 22 22 22 21 20 20 20 21 21 21 18 17 17 17 17 18 17 16 19 19 18 18 19 19 19 19 20 20 19 19 18 18 17 17 18 15 14 13 13 13 12 12 12 11 11 11 11 11 10 11 10 9 9 8 7
26 26 25 25 25 26 27 27 25 24 25 25 23 21 21 20 21 22 21 18 17 18 18 17 16 15 15 17 17 18 19 19 19 20 21 20 20 20 19 18 17 17 17 15 14 13 12 12 11 11 12 11 11 11 10 10 10 11 11 11 10 9 9
27 28 28 28 28 28 29 29 27 26 26 27 25 22 21 20 19 20 22 21 19 18 16 14 15 16 16 17 18 18 19 20 20 21 23 22 22 21 19 18 18 18 17 15 14 12 11 11 10 10 11 11 11 11 10 10 11 11 11 11 11 10 10
27 28 30 30 31 30 30 30 29 28 27 27 26 23 22 21 19 18 20 22 21 19 16 14 16 18 19 19 19 19 20 21 21 22 24 23 22 22 20 20 19 19 18 15 14 13 12 12 10 10 11 11 11 10 11 11 11 11 11 11 11 10 10
28 29 31 33 33 33 32 31 30 30 29 28 27 24 22 21 20 18 19 21 22 21 19 17 17 19 20 21 21 21 22 22 21 22 24 25 24 22 20 20 20 18 16 15 15 14 13 13 12 11 12 11 10 10 11 11 11 11 12 11 10 9 9
30 31 33 34 34 33 32 32 31 31 30 29 28 26 23 22 20 18 20 22 21 20 20 19 20 21 21 20 21 21 21 22 22 23 24 25 22 19 18 19 19 17 16 16 16 15 14 14 13 12 12 12 11 10 10 10 10 10 11 11 11 9 9
29 29 30 32 32 32 31 31 31 31 31 29 28 26 24 23 22 20 22 23 20 19 20 20 21 23 22 20 20 20 19 21 22 22 22 21 18 18 19 18 18 18 17 16 16 15 15 14 13 12 12 11 10 10 10 9 9 10 11 11 11 10 9
26 27 27 28 29 30 31 31 31 31 31 29 29 26 23 23 21 20 23 23 20 19 20 20 20 22 23 21 20 20 18 19 20 20 20 18 17 20 20 18 18 19 17 16 17 17 16 16 15 13 12 11 10 10 10 10 10 11 10 10 11 10 8
25 26 26 28 29 30 32 32 32 32 30 31 31 27 23 22 20 20 23 23 21 19 20 20 20 21 22 21 20 19 18 19 20 20 20 18 18 21 20 18 19 18 17 18 18 17 16 16 15 13 14 13 11 11 11 11 11 11 10 10 11 10 9
26 27 28 30 30 32 33 33 33 33 31 31 32 29 25 22 21 22 23 24 22 20 20 20 20 21 22 21 20 20 19 19 20 20 20 19 20 21 20 20 20 19 17 17 18 17 16 16 15 14 15 14 12 13 13 13 13 11 10 11 11 10 9
26 28 30 31 31 33 34 34 33 32 31 31 32 30 25 22 21 20 22 24 23 20 20 20 20 21 22 22 21 20 20 20 21 20 20 21 21 20 20 20 20 17 16 17 18 17 16 14 14 15 16 14 13 14 13 13 13 12 11 12 10 9 9
26 28 29 30 31 33 32 32 32 31 30 30 30 29 25 22 22 21 22 24 22 20 19 20 20 20 22 22 20 20 21 22 21 21 21 21 20 20 21 20 16 15 15 17 17 16 15 14 15 15 15 15 14 14 12 11 11 11 11 11 9 9 9
26 26 27 28 30 31 28 28 28 28 28 29 29 26 23 22 23 22 23 23 21 19 18 20 21 20 20 21 21 21 23 23 21 20 21 21 20 21 21 18 15 14 15 16 16 16 15 15 15 15 15 14 13 13 12 11 11 10 10 10 8 8 8
25 24 25 27 28 29 26 24 24 25 26 26 26 24 21 21 22 22 23 23 21 20 20 22 22 21 20 21 21 22 23 22 21 20 20 21 20 20 19 16 14 15 15 16 16 16 16 16 15 14 14 13 11 12 12 12 11 10 10 9 8 8 8
23 24 25 26 27 27 26 23 22 24 25 24 23 22 21 21 23 24 24 23 21 20 21 22 21 21 21 22 23 24 24 22 21 20 20 20 21 19 17 15 15 15 16 16 16 16 17 16 15 15 14 13 12 13 13 12 11 10 9 9 9 9 8
22 24 25 25 26 25 25 23 20 23 24 23 23 23 23 24 25 25 24 23 21 20 21 22 22 22 22 23 24 24 24 22 22 21 20 20 19 18 17 17 16 16 17 17 16 16 16 15 15 16 15 13 13 13 13 12 12 10 10 10 9 9 8
20 21 22 23 24 23 23 22 19 19 22 21 23 25 25 25 24 24 24 23 21 21 21 22 22 22 23 24 23 21 21 21 20 18 17 17 15 15 18 17 16 16 17 17 16 16 16 16 16 15 15 14 13 14 14 13 12 11 10 9 9 8 7
18 19 20 21 21 21 21 20 17 17 20 21 23 24 23 23 23 22 20 19 21 21 19 18 19 20 21 20 19 18 19 19 17 16 17 17 15 17 19 18 16 17 16 17 17 16 16 17 17 16 16 15 14 14 14 13 12 11 10 9 9 8 7
17 17 18 19 19 19 19 18 15 14 17 20 22 23 21 20 19 18 17 18 21 19 15 16 17 19 20 19 18 18 17 16 15 16 18 18 18 20 20 18 18 18 17 16 16 15 16 18 18 17 17 15 14 14 13 13 13 12 10 10 9 8 8
16 16 17 17 18 18 18 18 16 15 16 18 20 19 17 16 16 18 19 21 20 16 14 16 17 19 19 19 20 19 17 15 16 18 18 18 20 23 21 19 18 17 15 15 14 14 15 15 15 15 15 17 16 15 14 13 12 11 11 10 9 8 8
15 15 16 16 17 17 17 17 18 19 20 20 19 16 15 15 15 17 20 21 20 17 16 16 17 17 18 19 20 19 18 18 18 18 18 18 20 22 19 17 16 14 13 13 14 15 14 13 14 14 15 16 13 12 13 12 11 11 11 10 9 9 8
14 15 16 16 17 17 17 17 18 20 22 22 20 17 17 16 15 17 19 20 20 19 17 17 16 16 16 16 17 19 20 21 20 19 19 20 20 19 15 15 15 15 15 14 14 16 15 15 15 15 16 14 11 12 14 13 11 11 11 10 10 9 9
15 16 17 17 18 18 17 17 18 19 21 21 21 19 18 17 16 17 18 18 18 18 17 17 16 16 16 16 17 19 20 21 21 20 21 21 19 16 14 14 16 16 16 16 16 17 17 16 16 16 17 15 13 14 14 13 12 12 11 10 10 10 10
16 16 17 18 19 19 18 18 17 18 19 20 19 17 16 16 15 16 17 18 18 17 16 15 16 17 17 15 16 17 18 19 21 21 20 19 17 15 15 15 16 16 16 16 16 16 17 16 16 16 17 16 15 15 13 13 13 12 12 11 11 12 12
16 16 16 18 18 19 20 19 17 17 17 16 15 14 14 15 14 15 17 19 19 19 18 16 17 19 18 16 16 17 17 17 18 17 17 17 16 16 15 15 15 16 16 16 16 16 17 16 16 16 16 16 15 15 14 14 13 12 13 12 12 12 13
15 16 16 17 18 19 20 19 17 16 13 11 12 13 14 14 13 13 15 17 18 19 19 18 18 20 20 19 19 20 17 15 15 15 15 15 15 15 16 15 16 17 17 17 16 16 16 16 16 16 15 14 14 14 14 14 14 14 14 14 13 13 14
15 15 16 17 17 17 18 18 16 13 11 10 11 12 14 14 12 12 13 16 18 19 19 19 19 20 20 19 19 20 18 15 14 15 15 15 16 18 18 17 16 17 18 17 16 16 16 17 17 16 15 15 15 15 15 15 15 15 16 16 15 15 15
14 14 15 15 15 16 16 15 14 11 10 11 12 13 13 11 12 12 12 15 17 19 19 20 20 20 20 18 18 18 17 17 17 16 15 16 17 17 17 16 15 16 17 18 17 17 17 18 17 16 16 16 16 16 16 17 17 17 17 17 17 16 16
13 13 13 13 13 14 14 14 13 11 11 10 10 10 7 6 8 10 12 13 15 16 18 19 21 22 21 19 18 19 18 18 20 19 17 16 16 15 15 16 16 16 18 18 18 17 18 19 18 18 18 18 18 18 18 17 18 18 18 18 17 17 16
13 12 11 11 11 12 13 14 13 12 10 7 5 5 4 4 7 11 13 14 14 13 14 18 20 20 19 17 16 18 18 17 18 19 18 18 18 17 17 19 18 16 18 20 20 19 20 20 19 20 20 20 19 19 19 19 19 19 19 19 19 18 18
13 12 10 10 10 11 11 12 13 12 9 3 2 5 5 6 10 12 12 12 11 11 14 17 18 16 15 14 14 15 17 16 17 19 20 19 18 17 17 19 19 18 19 20 20 21 21 21 20 20 20 20 20 20 21 21 21 21 21 21 21 20 20
12 11 11 10 11 11 10 10 10 9 7 3 2 5 5 6 9 10 9 10 10 12 15 16 15 14 14 13 14 17 17 15 15 17 18 18 19 19 18 18 20 21 21 21 22 22 22 22 21 20 19 20 21 22 23 23 23 23 23 22 22 23 24
10 10 11 11 11 10 8 8 10 9 7 5 3 3 4 6 8 9 11 12 11 14 18 15 12 14 16 15 16 18 17 14 13 15 16 17 20 22 21 21 21 21 21 22 24 24 24 25 25 23 23 23 24 24 24 24 25 26 25 25 25 26 26
8 9 10 11 9 7 7 8 10 10 8 6 5 5 5 6 7 7 9 11 12 15 18 15 11 13 17 18 17 17 16 15 16 18 17 16 19 22 23 23 22 21 22 24 25 26 26 27 28 28 27 27 26 26 26 27 28 29 29 28 28 27 26
7 7 8 8 7 5 7 8 9 9 8 5 4 5 6 6 7 8 7 8 11 14 17 16 14 14 16 19 21 19 17 16 18 20 20 17 16 20 23 24 23 22 23 25 26 27 28 29 30 30 30 29 29 30 30 31 31 31 30 28 25 22 22
6 5 5 5 4 3 6 7 7 9 9 8 6 5 6 5 6 8 8 8 10 12 15 17 18 17 16 17 20 21 19 18 19 21 22 19 17 18 21 23 25 25 26 27 27 28 30 32 32 32 31 32 32 33 34 33 32 31 28 24 20 18 18

ECMWFFLT1_700_spd_108.txt.gz
Wind_Speed
23 24 25 25 25 25 25 25 25 25 25 24 24 23 22 22 20 19 17 16 15 14 14 14 14 16 17 18 18 19 20 21 22 21 20 20 19 18 20 22 21 22 21 19 17 15 13 13 13 13 13 12 12 13 13 13 13 12 11 10 10 10 8
25 25 26 27 27 27 26 26 26 26 26 25 25 24 23 22 21 20 19 16 15 13 12 14 15 15 15 16 16 17 19 19 20 19 19 20 18 17 18 20 21 21 21 19 17 14 13 14 13 13 13 12 11 12 12 13 13 12 11 12 12 10 9
26 27 28 29 29 28 27 27 27 27 27 27 27 26 25 23 21 20 19 17 16 14 12 12 13 13 13 14 14 15 17 18 19 18 19 20 18 18 18 19 20 20 20 19 16 13 13 14 13 13 13 12 11 11 11 12 13 12 13 13 12 11 11
28 29 31 31 30 30 28 27 27 27 27 28 28 29 27 25 23 21 20 18 16 15 13 11 11 11 12 13 13 13 15 17 17 17 19 18 18 18 18 18 18 18 19 19 16 14 14 13 13 13 13 12 12 12 12 13 14 14 14 13 12 11 11
29 30 31 31 31 31 29 27 26 26 26 27 28 30 30 27 24 22 21 18 16 16 15 14 12 12 12 12 12 13 13 15 16 16 17 17 17 18 16 17 17 18 20 19 16 15 15 15 14 13 13 13 13 13 13 14 15 15 14 12 12 12 12
30 30 30 30 30 30 28 25 25 25 26 28 30 31 32 30 26 23 21 19 16 16 16 15 14 12 12 12 13 13 14 15 15 16 16 17 18 19 17 18 18 18 18 16 14 14 16 16 15 14 13 13 13 13 13 14 15 15 13 12 13 13 11
29 28 28 28 28 27 27 26 25 26 27 29 31 32 31 30 28 25 23 21 18 17 16 16 15 14 13 13 13 13 14 16 16 17 18 17 18 19 18 18 17 17 17 16 15 15 16 16 15 15 15 14 13 13 13 15 15 14 14 14 13 12 10
27 26 26 26 27 27 28 28 28 29 30 30 31 32 31 31 31 27 23 22 21 20 18 17 16 15 15 15 15 14 14 16 18 19 19 19 18 18 18 18 16 15 16 17 16 16 18 18 16 16 16 15 14 14 14 15 15 14 14 14 14 11 10
25 25 25 26 27 29 30 30 31 31 32 32 33 32 32 33 33 29 23 22 24 22 19 17 17 16 17 17 16 15 14 14 17 19 19 19 19 18 19 19 17 17 18 18 17 17 19 18 17 16 14 13 13 14 14 15 15 14 14 15 14 11 12
24 24 26 27 28 30 31 31 31 31 32 34 36 35 33 33 32 30 27 25 24 22 20 18 17 18 18 18 17 15 14 14 16 18 19 19 19 19 19 18 17 18 19 19 18 18 19 17 16 15 13 13 15 15 14 14 14 14 15 15 13 11 12
25 26 27 27 28 29 30 30 30 30 32 36 37 35 33 31 29 29 27 25 23 22 21 20 19 19 19 19 19 16 16 16 17 19 20 19 18 18 18 18 18 18 18 18 18 18 19 17 16 16 15 16 16 15 15 14 14 14 15 14 13 11 12
26 26 27 28 29 29 29 29 30 31 32 35 35 32 29 28 27 28 26 24 23 24 24 22 20 20 19 19 19 18 17 17 18 19 20 18 17 18 18 17 18 18 18 18 18 18 19 19 17 17 17 18 17 16 16 17 15 15 15 15 14 12 12
24 25 26 27 28 29 29 29 30 30 31 33 32 28 24 24 25 26 25 23 24 25 23 22 22 20 19 18 18 18 17 17 18 19 20 19 18 18 18 17 17 17 18 19 18 18 20 21 19 17 18 18 17 17 18 18 16 15 15 15 13 13 13
23 24 25 26 27 29 29 29 29 30 30 32 30 24 20 21 23 24 23 23 24 24 23 22 22 20 18 17 17 17 16 16 17 17 18 19 18 17 17 17 17 17 18 19 18 19 22 22 19 18 19 19 17 17 17 16 14 13 14 15 14 14 13
21 23 24 24 26 28 29 28 28 29 29 30 28 21 18 19 21 22 22 22 24 23 22 21 20 17 16 16 17 18 17 17 16 15 16 17 16 16 17 17 17 18 18 18 19 22 23 22 20 19 20 20 18 18 18 16 14 13 13 14 14 15 13
20 21 23 24 25 27 27 26 26 27 28 29 27 20 17 18 19 19 20 21 22 20 18 19 18 15 15 17 18 18 17 17 15 14 15 16 16 16 17 17 17 18 18 19 21 24 24 23 22 21 22 22 20 19 18 18 17 15 14 14 16 16 13
18 20 22 22 24 25 26 25 24 25 26 27 26 20 16 16 16 16 17 17 17 16 15 17 18 16 16 17 18 17 16 16 15 15 16 17 16 17 17 17 17 18 19 21 23 25 25 24 22 22 23 23 22 20 19 19 18 16 15 16 16 15 14
17 19 20 21 22 23 23 23 22 22 23 23 22 19 15 16 16 16 15 13 12 12 12 15 16 15 15 15 15 16 15 14 15 16 17 17 17 17 17 18 19 19 21 23 25 26 26 24 24 23 23 23 21 19 20 19 18 16 15 15 16 14 13
16 17 18 19 20 21 21 22 21 20 20 19 18 16 14 13 14 15 15 14 12 11 11 13 13 13 15 14 13 14 15 15 16 17 17 18 18 18 18 20 21 21 21 23 24 25 24 22 22 20 19 19 17 17 19 18 15 15 14 15 16 12 11
15 16 16 17 18 19 20 21 20 19 18 17 16 15 13 12 12 13 14 13 12 12 10 11 11 12 15 14 13 14 15 15 15 16 18 21 20 18 19 20 20 18 18 20 21 21 20 18 18 16 16 17 15 14 16 15 13 14 15 17 16 12 11
14 14 15 16 17 18 19 20 20 19 17 16 17 16 14 13 10 9 10 10 10 11 11 11 11 12 12 12 12 13 13 14 14 15 19 21 20 19 20 19 18 17 17 17 18 17 17 17 16 15 15 15 14 13 14 14 15 16 16 17 15 12 12
13 14 14 15 17 18 19 20 20 19 17 16 17 16 15 13 10 9 9 9 10 11 11 13 14 12 11 11 11 11 12 14 14 16 18 19 19 19 19 18 17 17 16 16 16 17 18 17 17 16 16 16 14 14 15 16 17 16 16 16 15 12 12
14 14 15 16 17 18 19 20 21 20 18 16 16 15 13 13 12 12 11 11 11 11 12 14 15 13 12 11 11 12 12 13 14 15 16 17 18 17 17 17 18 16 17 17 17 18 19 18 17 17 18 17 15 15 16 17 17 17 17 16 14 12 11
15 15 16 17 18 19 20 20 21 21 18 15 15 13 11 11 11 12 11 11 12 11 11 13 13 13 13 11 9 10 11 12 13 13 13 14 15 14 15 18 19 18 18 19 19 18 18 18 17 17 18 17 17 17 18 19 19 19 18 17 15 13 11
16 17 17 17 18 19 20 21 21 21 18 15 14 12 10 9 9 10 10 11 11 10 10 12 13 14 14 12 9 9 9 10 10 10 12 13 14 15 14 15 17 18 20 20 18 17 17 17 17 17 17 18 18 18 18 19 19 19 19 18 16 15 12
17 18 18 18 18 19 20 21 21 21 19 15 13 11 9 9 9 9 9 9 9 9 9 10 12 14 14 13 12 11 11 10 10 11 12 14 15 16 15 15 16 18 18 18 16 15 16 17 18 17 18 20 21 19 18 19 19 18 18 18 18 16 13
17 18 18 18 19 19 19 21 21 21 20 17 14 12 10 10 9 9 8 7 8 10 11 11 12 12 12 13 14 13 13 12 11 11 12 13 15 16 17 18 18 17 16 16 15 15 16 18 19 18 19 21 22 21 20 20 19 18 18 18 18 15 12
17 18 18 18 18 18 19 20 21 21 20 18 16 14 12 11 10 8 6 6 7 9 11 12 13 12 12 14 15 15 15 12 10 10 11 12 14 15 17 18 17 16 17 16 15 16 17 18 18 18 19 21 21 21 21 20 19 18 17 17 15 12 12
16 17 17 17 18 18 19 20 20 21 20 19 16 13 12 12 10 5 5 5 7 8 9 10 12 12 13 15 16 15 15 13 9 9 11 11 13 15 15 16 16 16 17 17 17 18 17 17 17 17 19 20 20 20 20 20 19 18 18 18 17 16 17
16 16 16 16 17 17 18 19 20 20 19 16 14 12 13 13 10 4 3 4 5 6 7 9 11 11 12 14 14 13 15 13 10 9 11 10 11 14 14 13 13 14 15 17 18 17 15 15 17 19 20 20 20 20 20 19 19 19 19 19 19 20 20
15 15 15 15 16 17 18 19 18 17 16 13 11 11 12 13 10 4 2 3 4 4 5 10 11 10 11 13 13 12 13 13 8 6 9 10 10 12 13 14 13 13 14 17 17 16 16 17 18 19 20 20 20 19 19 19 20 20 20 20 20 21 21
15 14 14 14 15 16 18 17 16 15 14 12 9 9 11 11 8 5 5 4 6 5 4 10 10 10 12 14 14 12 11 12 11 7 6 9 7 6 8 12 15 15 15 16 15 15 18 19 19 20 20 19 20 20 20 20 21 22 22 21 22 22 21
14 14 14 14 13 14 15 14 12 13 13 11 10 10 9 9 7 7 7 7 8 7 6 11 9 7 10 12 14 13 6 6 12 11 7 7 8 7 8 9 12 16 17 16 14 15 17 19 20 20 19 19 20 21 21 22 23 23 23 23 23 23 23
14 14 14 13 12 12 12 11 11 12 12 10 10 10 9 8 8 8 8 8 8 7 6 11 8 6 7 7 10 15 12 9 10 10 9 8 7 10 12 10 11 14 15 15 16 16 17 19 20 19 18 19 20 21 22 23 24 25 25 25 26 26 27
12 13 13 11 11 10 9 9 11 12 13 12 11 10 10 10 10 9 10 9 8 8 5 8 8 8 10 7 7 13 17 18 15 13 11 9 6 7 10 11 13 14 13 15 18 19 21 23 22 20 19 20 20 21 23 24 25 26 27 28 29 29 30
11 11 10 9 9 8 7 8 9 11 13 13 13 12 12 13 13 12 11 10 7 6 6 6 5 5 8 10 10 12 16 20 22 22 19 14 9 7 7 9 13 15 15 16 18 18 20 21 21 20 21 22 22 23 24 26 27 28 29 30 31 33 34
9 9 8 7 6 5 5 6 7 9 10 11 13 13 13 14 14 13 12 11 8 5 5 5 6 6 7 9 11 13 14 17 20 24 26 22 17 13 9 9 11 14 17 20 21 18 18 19 20 21 23 26 27 27 28 29 30 31 32 33 35 36 37

ECMWFFLT1_700_spd_111.txt.gz
Wind_Speed
17 18 18 18 20 21 22 22 22 23 24 25 25 24 22 20 18 17 17 16 14 14 15 14 14 13 13 14 15 15 16 19 22 23 23 25 26 26 26 26 27 27 25 23 22 21 20 19 18 17 17 16 15 15 14 14 14 14 13 12 11 11 11
18 18 19 20 21 22 22 22 23 23 24 27 27 24 23 22 21 21 20 21 20 18 17 15 15 15 15 15 14 13 14 16 19 22 22 23 24 24 23 24 26 26 24 24 24 21 19 19 18 16 16 16 15 15 15 14 15 15 14 13 13 12 11
19 20 21 22 22 22 22 22 23 23 23 27 28 24 25 25 23 22 20 19 20 21 19 17 17 19 18 16 14 13 13 14 17 21 21 22 24 22 21 22 24 26 24 24 24 21 19 19 18 16 15 15 14 14 14 14 15 15 15 15 14 13 12
21 22 22 22 21 21 22 21 22 22 22 26 28 26 25 25 24 23 21 20 20 22 22 19 20 23 21 18 16 13 12 13 15 20 21 21 22 22 21 21 22 23 23 23 22 21 19 18 18 16 14 14 15 15 15 14 15 15 15 15 14 13 13
22 22 22 20 20 20 21 20 20 21 21 25 27 26 25 26 25 25 24 23 22 22 24 22 22 23 22 21 18 14 13 11 11 16 18 18 20 21 20 19 20 21 21 21 21 21 20 18 18 16 14 15 15 15 16 16 15 15 16 16 14 14 13
22 21 20 20 20 20 19 19 20 21 22 25 27 26 27 27 27 27 27 26 25 24 22 21 23 24 22 21 20 18 16 13 10 11 13 13 14 16 16 16 18 20 20 19 20 21 20 19 18 16 15 15 15 16 16 16 16 16 16 16 15 15 14
20 20 20 20 20 20 20 20 21 22 24 26 27 27 28 27 26 27 27 28 28 26 23 20 21 24 23 21 20 19 17 15 14 13 12 12 12 14 16 16 18 19 18 19 20 20 20 20 18 17 16 16 16 17 17 16 17 17 17 16 16 16 14
20 20 20 20 21 21 21 22 23 24 26 28 29 28 28 27 27 28 29 30 28 26 24 22 21 22 23 22 20 19 18 18 17 15 14 14 13 14 16 17 18 18 18 19 19 20 20 19 19 18 18 18 17 17 18 17 17 17 17 17 17 16 13
20 20 20 22 23 24 24 24 24 26 27 29 30 30 29 29 29 30 32 31 28 26 25 24 22 22 23 22 20 19 19 19 17 17 16 15 14 15 16 17 19 18 18 18 19 20 20 19 20 19 18 18 17 17 18 18 17 17 18 18 18 16 14
20 21 22 23 24 24 24 25 25 26 27 29 30 30 31 31 32 33 31 28 26 25 26 26 24 22 21 21 20 19 18 19 18 18 17 17 16 16 17 18 19 19 19 19 19 20 20 20 20 19 18 18 17 17 18 18 17 18 19 19 18 16 14
20 22 23 23 22 22 22 24 25 26 27 28 29 29 30 32 34 32 26 23 22 21 22 23 22 20 18 18 19 19 19 20 21 19 18 18 18 17 17 18 19 20 20 21 21 21 22 21 20 20 19 18 18 19 19 18 17 18 20 19 17 14 13
21 22 22 21 21 21 22 23 24 25 26 28 28 28 28 30 31 26 19 17 17 15 16 17 18 19 18 19 21 21 22 21 20 20 19 18 18 17 16 17 19 20 21 21 21 21 22 21 20 20 20 20 20 20 21 21 19 19 20 19 15 13 14
20 20 20 20 21 20 21 23 23 24 25 26 27 26 26 28 26 19 14 12 10 10 12 13 15 16 17 20 22 23 22 19 18 19 19 17 16 16 17 17 18 19 20 21 21 20 21 22 22 21 21 21 21 21 23 22 20 20 21 19 16 15 14
18 19 19 19 20 20 21 22 23 24 24 25 25 23 24 25 20 14 10 7 6 7 10 12 13 15 15 18 22 21 20 18 17 18 18 17 16 16 17 17 18 19 20 21 21 21 22 24 23 22 23 23 23 23 23 22 21 21 20 19 17 16 14
17 17 18 19 19 19 20 20 21 22 23 23 23 22 21 20 16 11 9 6 6 7 9 11 12 13 14 16 18 17 17 17 16 17 17 17 16 15 15 17 19 20 20 21 21 21 23 25 24 24 24 25 24 24 23 21 21 20 18 19 18 16 15
16 16 17 17 18 17 18 19 20 21 21 22 22 20 19 17 13 9 7 5 5 6 8 9 9 10 11 13 14 13 15 15 15 16 16 16 15 15 15 17 19 20 21 21 22 23 26 27 26 26 24 23 24 23 22 22 21 19 18 20 18 15 16
15 15 15 15 16 16 16 18 19 20 20 21 20 18 17 16 13 9 5 4 5 5 5 6 6 7 8 11 12 12 13 14 14 15 16 17 17 17 18 18 19 21 21 21 23 25 27 26 25 23 22 23 22 21 20 21 21 20 20 21 18 15 16
13 13 13 14 14 15 15 16 18 19 20 20 19 18 16 15 14 11 6 5 5 5 6 5 4 5 7 9 11 12 12 13 14 15 16 18 19 19 19 21 21 21 21 22 23 23 22 22 22 21 22 23 22 21 21 22 23 23 22 21 18 16 17
11 12 12 13 14 14 15 16 17 18 20 20 19 17 16 14 13 12 8 6 6 6 5 5 5 6 8 8 10 12 12 13 14 15 16 19 20 21 20 20 21 20 20 21 23 22 21 21 21 20 22 21 20 20 20 21 22 22 22 21 18 17 18
10 11 12 13 14 15 15 16 18 19 20 21 20 18 16 13 11 10 8 6 6 5 4 4 4 6 7 7 8 11 12 13 14 15 16 19 21 20 18 18 19 19 19 20 20 20 21 22 19 18 19 19 19 19 19 21 22 21 20 21 19 17 19
10 11 12 13 14 16 16 17 18 19 20 21 20 18 16 11 8 9 8 6 5 4 4 4 4 5 6 7 7 9 11 12 14 15 16 18 18 16 15 18 19 19 19 19 19 19 20 20 18 17 19 21 21 21 20 22 24 22 21 21 19 18 19
10 11 12 13 14 15 16 17 18 19 20 20 19 19 16 11 7 8 8 7 6 5 4 5 5 5 6 7 7 9 10 11 13 14 14 15 15 13 14 18 19 17 17 19 20 19 18 19 20 18 19 22 22 22 21 22 22 21 20 21 20 19 20
10 12 13 13 14 14 15 16 16 17 18 19 18 18 17 11 7 7 8 7 6 6 6 6 5 6 7 8 9 9 9 11 13 14 12 12 13 11 12 15 16 15 16 18 19 19 19 21 21 20 20 21 21 20 21 21 20 18 20 21 20 19 19
11 13 13 13 13 14 14 15 16 16 17 18 18 18 16 12 8 7 8 7 6 6 7 6 5 5 7 9 10 10 10 12 14 13 12 13 12 12 12 13 15 16 17 17 18 19 20 22 23 21 20 20 21 20 20 21 20 19 21 21 19 18 17
12 13 13 13 13 13 14 15 16 17 17 17 18 17 16 14 10 8 8 7 6 5 6 5 4 5 7 8 9 9 9 10 11 11 11 12 12 12 13 12 13 16 17 17 19 20 21 21 23 23 21 21 21 21 21 21 20 20 20 19 18 18 17
12 13 13 13 13 13 14 15 16 17 17 17 17 16 16 14 12 9 8 7 5 4 4 4 3 4 6 8 9 9 8 8 9 9 10 11 12 14 14 12 12 14 17 19 21 21 21 21 20 19 19 20 21 21 21 21 21 20 19 18 18 19 19
12 13 14 14 14 14 14 14 15 17 17 17 16 15 14 15 14 10 6 5 4 4 5 6 5 5 7 7 8 10 9 7 8 8 9 10 11 13 13 13 13 14 17 20 21 19 20 20 18 17 17 18 18 19 21 23 23 21 20 20 21 22 21
12 13 14 15 15 15 15 15 16 16 17 16 14 13 13 14 14 12 6 3 3 4 5 6 5 6 7 7 7 8 9 8 8 8 9 9 10 11 12 13 15 15 16 18 18 17 18 19 18 18 19 18 17 17 19 21 20 19 19 21 23 24 23
11 13 14 15 16 16 16 16 16 16 17 17 15 13 13 13 14 13 9 6 6 7 6 6 7 6 6 6 6 7 8 8 7 7 8 9 10 10 10 11 13 12 13 14 15 16 17 18 18 18 19 19 19 19 19 20 19 18 19 20 21 21 21
11 12 14 15 15 16 16 15 15 15 16 16 15 13 12 13 14 13 12 11 10 10 9 4 3 2 1 3 6 6 8 9 7 6 6 7 9 8 9 10 10 10 11 12 14 15 16 16 18 19 19 18 19 20 21 21 19 19 21 21 20 19 19
10 11 13 14 14 15 15 14 13 13 13 13 13 12 11 11 11 10 10 10 8 7 9 8 5 2 1 4 6 6 6 7 7 7 8 8 7 7 9 10 10 10 12 13 14 14 14 15 17 18 18 18 18 20 21 21 19 20 21 21 20 19 19
10 11 12 13 13 14 13 12 11 11 11 11 10 11 10 9 8 7 6 7 7 5 5 6 5 6 7 5 6 6 7 8 8 7 5 5 6 4 4 6 7 8 9 11 12 15 16 16 15 15 16 17 18 21 22 21 21 21 21 21 21 21 21
9 10 11 12 12 12 11 9 9 10 10 10 9 9 8 7 7 7 7 7 7 4 3 6 9 9 9 7 6 7 8 8 9 6 1 3 4 2 1 1 3 4 6 9 11 14 16 15 13 14 16 19 21 21 22 21 21 22 21 21 22 22 23
9 10 11 11 11 10 8 8 8 9 10 11 10 9 8 8 7 7 7 8 8 6 3 5 7 4 3 5 4 5 7 7 7 6 4 3 1 2 4 2 0 3 6 9 9 9 11 12 13 15 17 19 21 22 22 21 21 22 22 23 24 24 25
8 9 9 9 9 7 6 6 7 9 9 10 11 12 11 10 10 9 8 8 8 9 7 5 3 2 3 5 7 5 5 6 6 7 9 8 5 2 4 4 2 2 5 8 8 5 6 9 12 15 18 19 21 23 24 23 23 23 24 24 25 26 27
7 7 7 7 6 4 3 5 6 8 8 7 9 10 11 11 11 11 11 10 10 9 9 7 5 4 3 5 7 7 7 7 8 9 10 9 7 5 4 7 5 2 1 4 6 6 7 8 10 14 17 20 20 21 23 23 23 22 22 23 24 26 28
6 5 5 5 4 2 1 3 4 5 5 6 7 7 7 8 8 9 10 11 10 9 8 7 7 6 6 6 6 6 7 8 8 9 9 8 7 8 8 7 6 5 5 5 5 5 6 8 10 11 14 17 18 19 19 20 20 20 22 24 26 28 29

ECMWFFLT1_700_spd_114.txt.gz
Wind_Speed
15 17 19 20 21 22 22 23 22 22 22 19 16 15 15 17 16 13 13 15 16 17 18 20 21 22 23 22 20 19 18 19 21 24 25 25 27 27 27 28 28 27 27 27 26 25 23 22 22 22 22 22 22 21 20 18 17 17 15 15 14 13 12
17 19 21 22 23 23 22 23 22 22 22 20 18 18 18 18 17 16 17 18 19 20 20 21 22 23 24 23 22 20 19 20 21 23 24 26 27 28 27 27 27 28 28 28 28 27 25 24 23 23 22 21 21 21 20 18 18 17 17 16 15 14 13
19 20 22 22 23 23 22 22 22 22 22 20 19 20 20 20 19 19 20 20 22 22 22 22 23 24 25 25 24 23 22 22 23 23 25 27 27 29 28 26 27 28 29 29 29 28 27 26 24 22 21 21 20 19 18 18 18 18 17 17 16 16 14
20 21 22 22 22 22 22 23 23 23 22 20 19 21 21 22 22 22 23 23 24 24 23 23 23 25 26 26 26 26 25 24 24 24 25 27 27 27 27 25 26 27 27 29 29 28 27 25 23 21 20 20 19 19 19 19 18 18 18 17 17 16 16
20 20 21 21 22 22 23 23 23 23 24 23 22 23 23 24 24 24 25 25 26 25 23 24 25 26 27 27 27 27 27 26 25 24 24 26 27 26 25 24 23 24 24 25 26 26 26 24 23 21 20 20 20 20 20 20 19 19 19 18 17 17 17
19 19 20 20 22 23 23 23 23 24 25 25 25 25 26 26 26 26 26 26 27 27 26 26 27 28 27 27 27 26 27 25 23 23 22 24 25 25 24 22 22 22 22 23 24 26 26 25 25 24 22 22 21 20 21 21 20 19 19 18 18 19 18
18 19 19 20 21 21 22 23 24 25 25 25 25 26 27 27 27 27 28 28 29 29 29 28 29 29 28 27 26 25 25 24 22 21 21 22 23 24 24 23 23 22 22 22 24 26 27 27 27 25 23 23 22 22 22 21 20 20 19 18 19 19 19
18 19 20 20 21 21 22 23 23 24 23 24 25 26 27 28 29 29 30 30 30 31 32 31 29 28 28 26 24 23 22 23 23 22 20 20 20 23 24 23 23 23 23 23 24 26 27 27 26 25 24 22 22 22 22 21 21 19 18 18 19 19 19
19 19 20 20 21 22 22 22 21 21 22 24 25 26 27 28 29 30 30 30 31 32 31 28 24 24 24 24 22 20 19 21 23 22 19 18 18 20 21 22 23 23 23 24 25 26 27 26 26 26 25 23 21 22 22 21 20 19 20 20 20 20 19
19 19 19 20 21 22 21 20 20 20 22 24 26 27 27 28 28 29 28 29 30 29 25 21 19 19 21 21 20 17 16 19 21 20 18 17 17 18 20 21 23 23 22 23 24 25 26 25 25 26 25 23 22 22 21 20 18 18 20 20 20 20 19
18 19 20 20 21 20 20 18 18 20 21 24 25 26 27 28 27 27 27 27 26 23 19 16 15 16 18 18 17 14 14 16 18 17 17 16 16 17 19 19 22 23 23 23 23 24 23 23 24 25 25 23 22 22 22 20 17 17 19 20 19 19 19
18 19 20 20 20 19 18 17 17 19 21 23 24 25 26 27 26 26 25 23 20 17 15 12 11 13 15 15 15 13 11 13 15 15 16 16 17 18 19 19 21 22 23 24 24 23 23 24 25 25 24 23 22 23 23 21 19 19 19 19 19 18 18
19 19 19 19 18 18 17 16 17 19 21 22 23 24 25 25 24 24 22 19 16 13 12 10 10 11 14 14 14 13 12 13 14 14 15 16 18 19 20 21 22 22 24 25 25 25 25 25 25 25 25 24 23 23 23 22 21 21 20 19 19 18 18
18 17 17 17 17 16 16 16 17 19 21 22 23 23 23 23 22 22 20 17 14 12 11 11 11 12 13 14 14 13 13 13 14 14 15 16 18 20 21 22 24 24 25 26 27 27 27 26 25 26 26 24 24 25 24 23 23 23 22 21 20 20 20
15 15 15 15 15 16 16 16 17 19 20 21 22 22 22 21 20 20 19 16 13 12 11 11 11 12 12 13 13 12 12 12 14 15 15 15 17 19 21 22 23 24 25 26 27 27 26 26 26 25 24 24 23 23 24 24 23 23 23 21 21 22 23
13 13 13 14 14 15 15 16 17 18 19 20 21 22 21 20 19 18 17 15 12 10 10 10 10 11 12 12 11 11 11 11 13 14 14 15 16 19 21 21 21 23 24 25 26 26 25 25 25 24 24 25 24 23 24 25 24 24 23 22 21 22 23
12 12 12 13 14 14 15 15 16 17 19 20 20 21 21 20 18 16 15 13 11 10 10 10 9 8 10 10 10 10 11 11 12 13 14 15 17 19 21 20 20 22 24 25 25 25 24 23 24 25 25 25 24 24 24 25 25 25 24 23 22 22 22
10 11 11 12 13 14 15 15 16 17 19 20 20 21 21 20 18 15 13 12 11 10 10 10 9 8 8 9 9 10 11 11 12 12 14 16 18 20 21 20 20 22 24 24 24 24 22 22 24 25 24 23 23 24 24 24 25 25 24 24 24 25 25
9 10 11 12 13 14 15 16 17 18 19 19 20 20 21 20 18 14 11 10 9 9 10 10 10 8 8 9 8 9 10 10 11 13 14 15 16 18 21 21 21 23 24 23 22 22 21 21 23 23 22 22 22 23 24 24 24 23 23 25 25 26 25
9 10 11 12 13 15 16 16 17 18 19 19 20 20 20 20 18 14 10 9 8 8 9 10 9 8 8 8 7 8 9 9 10 12 14 14 14 16 19 21 22 23 22 21 21 21 21 20 20 20 22 22 22 22 23 24 23 23 24 24 23 24 23
9 10 12 13 14 15 16 17 18 18 18 19 19 20 20 19 17 13 9 9 8 7 8 9 9 9 8 8 7 8 8 8 10 12 13 14 14 15 18 20 21 21 21 21 21 20 20 20 20 21 22 23 23 23 23 23 23 23 24 23 23 24 24
10 11 12 14 15 16 16 17 17 18 18 18 18 19 19 18 16 13 9 8 8 8 9 9 9 10 9 7 6 7 6 7 10 11 12 13 15 16 17 19 21 21 21 22 21 20 20 21 22 23 22 22 23 24 24 24 23 22 23 24 24 25 26
10 11 13 14 15 15 15 16 17 17 17 17 17 18 18 17 15 12 9 8 8 8 9 9 9 10 9 8 7 6 6 7 9 9 9 12 15 16 17 18 20 21 22 22 20 20 21 22 24 24 23 22 22 22 23 22 22 22 23 25 24 24 27
11 12 13 14 15 15 15 15 16 16 17 17 17 17 16 15 14 12 9 8 8 8 8 9 9 10 9 7 7 6 7 8 9 8 8 11 12 12 13 16 18 20 21 21 21 20 21 23 24 23 22 22 21 21 21 20 21 22 23 25 25 26 28
11 12 13 14 14 14 15 15 16 16 16 16 16 16 15 14 12 11 7 6 7 7 8 9 9 8 7 6 7 7 7 8 9 9 9 10 11 11 12 14 16 17 18 19 19 17 19 22 23 21 20 20 19 19 19 20 21 21 22 24 25 27 29
12 12 13 14 14 14 15 15 15 16 16 16 16 15 14 13 11 9 7 5 6 6 7 8 7 7 5 4 5 6 6 7 7 7 7 7 8 11 12 13 14 14 15 16 17 16 17 20 21 20 19 19 19 19 19 20 20 20 22 23 24 27 27
12 12 13 13 14 14 15 15 15 16 16 16 14 13 12 11 9 7 6 5 6 7 8 8 6 6 5 5 6 7 7 7 7 7 7 7 8 10 12 13 14 14 14 15 16 18 18 19 20 19 18 19 20 19 20 20 20 21 24 25 25 25 25
12 12 12 13 14 14 15 15 15 15 15 14 13 12 11 10 7 6 6 5 6 7 4 4 3 3 5 7 7 8 8 8 8 8 8 8 8 9 11 14 15 15 14 13 13 16 18 18 19 18 18 20 19 18 20 21 20 22 25 26 26 25 24
12 11 11 12 13 14 14 15 14 15 14 13 13 12 10 9 7 7 7 7 9 11 8 5 3 3 5 7 6 6 6 6 7 8 8 9 9 9 10 12 14 15 15 14 13 14 16 16 17 18 18 19 18 17 19 21 22 23 24 26 28 27 26
11 10 10 11 12 13 13 14 14 14 13 12 11 10 9 8 7 7 7 9 12 12 9 6 5 7 8 8 8 8 7 6 7 8 5 2 5 9 10 11 13 13 13 14 14 14 14 15 16 17 18 19 19 18 18 20 22 23 24 26 25 23 23
9 9 9 9 11 11 12 12 12 12 11 10 10 9 8 7 6 4 3 4 6 4 3 3 4 8 9 8 9 9 9 9 9 8 4 4 4 5 8 9 9 8 8 10 11 11 11 12 12 13 16 18 17 15 15 17 19 20 22 24 22 20 22
7 7 7 8 9 10 10 10 10 10 10 10 9 9 8 7 5 3 1 2 3 2 3 4 5 7 9 10 9 8 9 10 8 5 2 0 1 2 2 1 3 4 4 5 5 6 8 8 9 10 13 14 14 13 14 14 15 17 19 20 19 19 20
6 6 6 7 8 8 7 7 7 8 9 9 9 9 9 7 6 5 3 2 2 2 3 5 6 7 10 12 12 12 11 10 8 6 6 7 6 6 7 7 5 3 3 4 4 6 7 7 7 8 10 11 12 13 13 11 12 14 15 15 16 16 16
4 5 5 6 6 5 5 5 6 7 7 7 8 9 9 8 7 7 6 5 4 2 3 5 6 8 10 11 12 12 11 10 9 9 10 10 8 7 6 5 7 9 9 7 4 5 7 7 6 6 7 7 8 11 12 12 13 16 17 17 18 18 18
3 4 4 4 4 3 3 4 5 5 5 5 6 7 8 8 8 8 8 7 6 5 5 5 5 6 7 9 10 10 10 9 10 11 11 10 7 4 4 3 3 4 5 4 2 1 2 5 6 6 7 7 8 10 13 16 17 19 20 21 21 21 21
3 3 3 3 2 1 2 3 4 4 4 5 5 5 5 5 7 8 8 7 7 6 6 6 5 5 6 7 8 9 9 9 10 11 11 10 6 2 1 2 2 3 4 4 4 3 1 2 3 5 7 9 10 12 14 16 19 20 22 23 23 23 23
2 2 2 3 2 2 2 3 4 4 4 5 5 5 3 4 5 7 7 7 7 7 7 7 7 7 7 8 8 8 8 9 9 9 9 10 8 5 1 3 5 6 6 6 6 6 5 4 5 5 6 7 9 12 14 16 17 19 21 23 23 22 22

ECMWFFLT1_700_spd_117.txt.gz
Wind_Speed
11 13 15 16 17 19 20 20 20 19 19 18 17 16 16 17 19 20 21 21 22 22 24 25 26 27 27 28 29 30 31 30 29 28 26 25 25 26 27 27 26 26 27 29 27 25 26 28 27 26 25 24 24 22 22 22 22 20 19 18 17 15 15
13 14 16 17 18 20 21 21 19 19 19 19 18 18 18 19 20 21 22 22 22 23 25 26 27 28 28 28 30 31 32 32 31 30 28 27 25 25 25 26 26 24 26 29 29 27 27 28 27 25 23 23 23 22 22 22 22 21 20 19 18 17 16
14 15 16 17 18 20 21 21 19 19 21 21 19 19 19 20 22 22 23 23 24 24 26 27 28 29 29 30 30 31 32 32 32 31 30 29 28 27 25 25 25 24 26 30 31 29 28 27 27 25 24 24 23 21 21 22 22 21 20 19 19 18 17
15 15 16 17 18 19 20 21 21 21 22 22 21 20 21 22 22 23 24 25 26 26 27 28 29 29 30 31 31 31 31 32 32 32 31 31 31 30 27 25 25 25 28 31 33 32 30 28 27 26 25 24 22 21 22 21 21 21 20 20 20 19 18
15 15 16 17 17 18 20 21 23 23 24 24 23 22 22 22 23 24 26 27 28 29 29 30 30 30 31 32 33 32 32 32 32 32 32 31 30 30 28 26 26 26 30 33 34 33 30 28 27 27 26 25 23 22 22 22 22 22 21 20 20 19 19
14 15 15 16 17 19 20 21 23 24 25 25 25 24 23 23 24 25 27 29 30 31 32 32 32 32 32 34 35 34 33 32 32 31 31 30 28 27 27 26 27 28 30 31 32 32 30 29 28 28 27 26 24 23 22 22 22 22 22 21 21 20 20
14 15 16 17 18 20 21 21 23 24 25 26 26 25 25 24 24 26 28 30 32 33 33 33 33 33 34 35 36 36 35 33 32 30 29 27 26 25 25 26 27 28 29 30 30 31 30 30 29 29 28 27 27 26 23 22 22 23 23 23 22 21 21
15 16 17 18 20 21 21 21 22 23 24 25 25 26 25 25 25 27 28 30 32 33 33 32 33 33 33 34 35 35 35 33 31 29 26 24 23 23 25 25 26 28 29 29 29 29 30 30 29 28 29 28 28 27 24 23 23 23 22 23 22 22 21
16 17 18 19 21 22 22 21 21 22 23 24 25 26 26 26 27 27 29 30 32 32 32 31 31 29 29 29 29 28 28 29 28 26 23 22 21 22 23 24 24 25 25 26 26 26 28 28 28 29 29 28 28 26 25 24 23 22 22 23 23 22 22
17 18 19 20 21 22 21 21 21 22 23 24 25 26 26 26 27 28 29 30 31 30 30 29 27 25 24 24 22 21 21 23 23 22 20 20 20 20 21 20 20 20 22 25 24 25 26 26 28 29 29 28 28 27 25 24 22 20 20 21 22 21 21
18 19 20 21 21 21 21 21 21 22 23 24 25 26 26 26 27 28 29 30 29 29 28 26 24 23 22 20 17 15 16 18 19 18 18 18 18 18 19 18 17 16 20 26 25 24 25 25 27 29 29 28 28 27 26 24 22 19 19 20 20 20 20
19 20 21 21 20 19 20 20 21 22 23 24 25 26 26 26 27 27 28 28 28 26 25 23 22 21 20 17 14 13 14 16 17 16 16 17 17 17 17 17 15 13 16 23 25 24 23 24 27 29 29 29 29 28 27 25 22 21 20 20 19 18 19
19 20 20 19 18 19 19 20 20 21 22 24 25 26 26 26 26 26 26 27 26 24 22 20 20 19 18 16 13 12 14 16 17 16 16 16 16 17 17 16 14 13 14 17 21 23 21 22 25 28 29 30 30 29 28 25 24 22 21 20 20 18 19
20 19 18 17 18 18 19 19 19 20 22 23 24 25 25 26 26 25 25 26 24 22 20 18 18 18 17 15 13 13 14 16 17 18 18 18 17 17 18 17 14 14 15 16 18 21 22 22 24 25 26 28 29 29 27 26 24 23 21 21 21 20 20
18 17 16 16 17 18 18 18 19 20 21 22 24 25 25 25 25 24 25 25 23 20 18 17 16 16 16 15 14 14 15 16 18 18 18 19 19 19 19 18 16 16 16 17 19 21 22 23 24 24 25 26 27 28 28 26 24 23 22 22 22 22 23
16 15 15 15 16 16 17 18 19 20 21 23 24 25 26 25 24 24 23 23 21 19 17 16 15 15 14 14 14 15 15 16 17 18 18 19 19 19 18 18 18 18 17 18 20 22 23 24 25 26 25 25 26 28 27 25 23 23 23 24 23 23 24
15 14 14 14 15 16 17 18 20 21 22 23 24 25 25 25 24 23 22 22 20 18 17 16 15 14 13 13 13 14 15 16 16 17 17 18 17 17 17 18 18 19 19 19 19 22 24 25 26 27 27 26 27 27 25 23 23 23 24 24 24 24 25
12 12 13 13 15 16 17 19 20 22 23 23 24 25 25 25 24 23 21 20 19 18 17 15 14 14 14 13 13 14 14 15 16 15 15 15 15 15 16 17 18 19 19 18 18 20 23 24 26 27 27 27 27 25 23 23 23 24 24 24 25 25 24
11 11 12 13 15 16 18 19 21 22 23 23 24 25 25 25 24 22 20 19 18 17 16 15 14 13 13 13 13 13 14 14 14 14 14 14 14 15 15 16 17 18 19 18 18 19 22 24 24 24 25 25 25 24 23 23 24 24 24 25 24 24 24
10 11 12 13 15 16 18 19 21 22 22 23 24 24 25 25 24 22 19 18 17 16 15 13 12 13 12 12 13 13 13 13 13 13 13 13 14 14 15 16 17 18 18 18 18 19 20 22 21 21 21 22 22 23 23 23 24 24 24 24 23 23 25
10 11 12 14 15 17 18 19 20 21 22 23 24 24 24 24 23 21 18 17 15 14 13 12 11 12 12 12 12 13 13 13 13 14 14 14 13 14 15 16 17 17 18 18 17 17 19 20 20 20 21 22 23 24 24 24 23 23 23 23 23 23 25
11 12 13 14 16 17 18 19 20 21 22 23 24 24 24 24 22 20 17 15 14 12 12 11 11 12 12 12 12 11 11 12 12 13 13 13 13 14 15 15 15 15 17 17 17 18 19 20 21 21 22 22 23 24 25 24 23 23 23 24 24 24 25
12 13 14 15 16 17 18 19 19 20 22 23 24 24 24 23 22 19 16 14 12 10 10 10 10 11 12 12 11 11 11 12 11 11 10 11 12 13 14 14 14 14 15 15 17 18 19 20 21 23 23 22 22 23 24 24 24 23 23 24 25 24 25
13 14 15 15 16 18 18 19 19 20 22 23 24 24 23 22 21 17 15 13 10 9 9 10 10 10 10 11 10 10 11 12 12 11 10 10 11 12 13 14 14 15 15 15 17 18 18 18 19 22 22 22 22 23 24 24 24 24 24 23 24 24 25
14 15 16 16 17 18 18 19 19 20 21 22 23 24 23 21 19 16 13 11 9 7 8 9 9 9 9 9 9 9 10 12 13 13 12 12 12 12 12 13 14 14 13 14 16 18 18 18 18 19 20 21 22 24 25 25 25 25 24 24 24 24 24
15 16 16 16 17 18 18 19 19 20 20 21 22 23 22 20 17 14 11 9 8 7 6 7 9 9 9 9 9 9 10 12 13 13 12 12 11 10 10 11 12 12 12 13 14 15 17 18 18 19 20 21 21 22 24 24 23 23 24 25 25 24 24
15 16 16 17 17 18 18 18 19 19 19 20 20 20 20 18 15 12 10 9 9 9 6 6 7 7 8 9 9 9 10 12 13 14 13 12 11 10 10 10 11 11 12 13 14 14 14 15 17 19 20 21 21 21 21 21 21 21 21 23 24 25 25
15 15 16 16 17 17 17 17 18 18 18 18 17 16 16 16 14 11 8 5 6 8 8 6 5 6 7 8 9 8 8 9 11 12 13 13 12 11 11 11 11 12 12 14 14 14 14 15 17 18 18 19 20 20 19 19 19 19 19 21 22 24 25
15 15 15 16 16 15 15 16 17 17 16 16 16 15 13 12 12 10 7 2 1 5 6 4 4 7 9 10 11 9 8 8 9 10 11 11 9 9 11 11 11 11 12 13 14 15 14 14 16 17 17 18 19 19 18 18 17 18 19 20 20 21 22
14 14 14 14 14 13 14 14 15 15 15 15 15 14 12 9 8 7 5 2 2 3 3 3 5 9 11 12 11 10 9 8 9 9 9 7 4 4 7 8 9 10 11 10 11 12 12 11 13 13 13 14 16 17 16 16 15 16 18 18 18 19 20
14 14 13 12 11 11 12 13 13 13 13 13 13 12 10 8 7 6 6 7 7 7 8 9 10 10 10 10 10 9 8 8 9 8 7 3 3 6 9 7 7 8 6 4 5 7 9 10 9 10 12 12 12 13 13 12 12 12 14 17 18 16 17
13 12 11 9 9 9 9 10 10 11 11 11 11 10 9 8 7 7 8 9 10 10 10 11 9 6 7 9 9 9 9 10 8 7 6 6 6 7 8 7 4 3 1 1 0 2 4 3 3 3 4 6 6 8 8 9 11 10 9 13 16 15 15
11 10 9 8 8 8 7 7 8 9 9 9 9 9 9 9 8 7 7 7 7 8 8 8 6 6 7 8 9 9 10 9 8 6 7 8 7 6 7 7 5 4 4 2 2 3 2 1 4 6 4 2 1 4 3 2 5 5 4 5 10 12 13
9 9 8 7 7 6 5 6 7 7 8 8 9 9 9 9 8 7 6 7 7 7 7 7 6 7 8 8 8 9 9 8 7 7 8 8 7 6 6 7 6 5 5 4 4 5 4 2 2 2 1 2 1 3 5 3 1 1 1 2 4 5 6
8 7 7 6 5 5 5 5 6 7 7 8 9 9 8 8 7 6 6 7 6 6 6 6 7 8 8 8 9 9 9 8 9 9 8 7 6 5 4 5 4 5 5 6 6 6 5 4 5 4 4 3 2 1 3 4 3 3 4 5 5 5 5
7 7 6 5 4 4 4 5 6 7 8 8 9 8 7 6 6 5 6 6 6 6 6 7 7 8 8 8 9 8 8 8 9 9 9 7 6 4 3 2 3 4 4 5 5 5 6 6 7 7 6 6 5 5 6 7 8 9 10 11 11 11 11
6 5 4 4 3 4 4 6 7 8 8 8 8 7 6 6 5 6 6 6 6 7 7 7 7 7 7 7 7 6 7 7 7 7 7 7 6 5 4 4 4 4 4 4 4 5 6 7 8 8 8 8 9 9 9 9 11 12 12 13 15 15 16

ECMWFFLT1_700_spd_123.txt.gz
Wind_Speed
7 8 9 11 13 14 15 16 17 18 19 19 19 18 19 20 20 22 23 24 25 25 25 25 24 25 25 26 27 28 30 31 32 34 34 34 35 35 33 32 32 31 30 29 29 28 27 26 24 23 24 25 26 26 25 26 28 28 28 27 25 22 21
9 10 11 13 14 15 16 17 18 18 19 19 19 19 20 21 21 22 23 24 24 24 24 25 25 25 25 26 27 28 30 31 33 35 36 36 37 37 35 33 32 32 31 29 28 28 28 27 26 24 23 24 26 27 26 27 28 28 28 27 26 25 23
11 12 12 14 14 15 16 17 17 17 17 18 19 20 21 22 23 23 23 23 24 24 24 25 25 26 26 26 27 29 31 32 33 34 35 36 36 36 36 34 34 32 30 29 28 28 28 27 27 25 23 25 27 26 25 27 26 27 28 27 27 27 25
12 12 13 13 13 15 16 16 16 16 17 18 20 21 22 22 23 23 23 23 23 23 24 25 25 25 26 26 28 30 31 32 32 32 32 33 33 34 34 34 34 32 31 30 29 28 28 27 28 27 24 25 27 26 22 24 25 26 28 28 27 28 26
13 13 13 12 13 15 16 15 15 16 17 19 20 21 22 22 22 22 22 22 23 23 24 24 24 25 25 27 29 30 30 30 29 29 29 29 29 31 32 33 34 33 33 31 29 28 27 27 28 28 25 24 26 25 21 22 25 26 27 28 28 28 27
13 13 12 11 13 15 15 15 16 17 18 19 20 21 20 20 20 21 22 22 22 22 23 23 24 24 25 27 28 28 27 27 27 27 27 26 27 27 29 30 31 32 31 30 29 27 26 25 26 27 25 25 26 26 24 22 26 26 27 28 28 28 28
14 12 11 12 13 15 16 17 17 18 19 19 18 18 17 18 19 20 20 21 21 21 21 22 23 24 26 27 27 25 24 24 24 24 25 25 24 24 24 25 27 27 28 28 27 26 25 25 26 26 25 26 27 27 27 25 27 28 28 28 28 28 29
13 12 11 12 14 16 18 18 19 19 18 17 16 16 16 17 18 19 19 20 20 20 21 22 23 24 26 26 25 23 22 22 21 22 22 22 21 20 19 20 21 21 22 23 24 24 24 25 26 25 25 27 27 28 29 28 29 30 29 28 28 28 30
13 12 12 13 15 17 19 20 20 19 17 16 15 15 16 17 18 18 19 19 19 20 21 22 23 24 25 25 23 21 21 20 20 20 20 19 18 18 17 16 15 14 15 18 20 22 22 23 24 25 26 27 28 30 31 31 30 31 31 30 29 28 29
14 13 12 13 16 18 19 20 19 18 15 14 14 15 16 17 18 18 18 19 19 20 21 22 23 24 24 24 22 20 20 20 18 18 18 17 16 15 15 14 13 12 13 15 18 20 22 22 23 23 26 27 29 32 33 32 30 31 32 31 29 28 28
14 13 13 14 16 18 19 19 18 16 14 14 14 16 17 17 18 18 19 20 20 20 21 22 23 23 24 23 21 20 20 19 18 18 18 18 16 14 14 14 14 13 15 16 18 20 21 21 21 22 26 30 33 33 31 30 30 31 33 31 29 28 27
14 13 13 14 16 18 18 17 16 14 13 14 15 16 17 17 18 19 20 21 21 21 21 21 22 23 23 23 21 19 19 19 19 18 18 18 17 16 14 14 14 14 16 17 18 19 19 19 21 24 29 31 30 28 25 27 28 30 34 31 29 28 26
14 13 13 14 15 17 16 14 13 12 13 14 15 16 17 17 18 19 20 21 21 21 21 21 22 23 23 22 21 20 19 18 19 18 18 18 17 17 16 15 15 16 17 18 18 18 18 19 22 25 28 26 22 22 22 26 28 29 33 31 29 29 27
14 12 12 14 15 15 14 12 11 11 12 13 14 15 17 18 19 20 21 22 22 22 22 22 22 23 23 22 20 19 19 18 18 18 18 17 16 16 16 15 15 16 18 18 18 18 18 19 22 24 26 22 17 17 19 25 30 31 31 29 30 30 28
13 11 12 13 14 13 11 10 10 11 12 13 14 16 17 18 19 20 21 23 23 23 22 22 22 23 22 21 19 19 18 17 18 17 17 16 15 15 15 15 15 15 17 19 19 19 19 19 21 22 24 21 14 15 17 19 24 27 27 28 30 30 28
12 11 12 12 12 11 9 9 10 10 12 13 14 16 17 18 20 21 22 23 23 23 22 22 22 23 22 20 18 18 18 17 17 17 17 15 15 15 15 14 14 15 16 17 18 18 18 18 19 20 21 20 16 14 15 16 18 21 24 29 30 28 27
11 11 11 11 11 9 9 9 9 10 12 13 14 16 17 19 20 22 23 24 23 23 22 22 22 22 21 20 17 17 17 17 17 17 17 16 15 14 14 14 14 14 15 15 16 16 16 16 17 17 17 19 19 16 14 14 15 16 22 29 30 27 26
11 11 11 11 10 9 9 9 9 11 12 13 15 16 18 19 21 22 23 24 23 23 22 21 21 21 21 19 17 16 17 18 18 17 17 17 16 15 15 15 15 15 15 15 15 16 17 16 16 16 16 18 20 18 15 15 14 15 20 26 29 27 25
11 11 10 10 10 9 9 9 10 11 12 13 15 16 18 19 20 22 23 23 23 22 22 21 20 20 20 18 17 16 17 17 18 17 17 17 16 15 15 15 15 16 16 15 15 15 16 16 16 16 16 17 18 17 14 14 14 14 16 19 23 26 27
11 10 10 10 10 10 10 10 11 12 13 14 15 17 18 19 20 21 23 23 23 23 22 21 20 20 19 18 17 17 17 17 17 17 17 16 16 16 15 14 14 14 15 15 15 15 15 15 15 15 15 16 16 15 13 12 12 14 16 16 17 23 28
11 10 11 11 10 10 11 11 12 13 14 15 16 17 18 19 20 21 22 23 23 23 22 21 21 20 19 18 18 17 17 17 17 17 17 17 17 16 15 15 14 14 14 14 14 15 14 14 14 14 14 14 13 13 12 12 12 14 15 16 16 19 24
11 11 11 11 10 11 12 12 13 14 15 15 16 17 18 19 20 21 22 23 23 23 22 21 20 19 18 17 17 17 16 16 17 17 17 17 17 17 16 16 16 15 14 14 14 14 14 14 14 14 13 13 13 13 12 12 12 12 13 14 16 19 24
11 11 11 10 10 11 12 13 14 14 15 16 16 17 18 19 20 21 22 23 23 22 21 20 19 17 15 15 15 15 16 17 17 18 18 18 18 17 16 16 15 15 14 14 14 13 13 13 14 14 13 13 14 14 14 13 13 13 13 13 15 17 22
12 11 10 10 10 11 12 13 14 15 15 16 16 17 19 19 19 20 21 21 21 20 18 17 17 15 13 13 14 15 17 19 20 20 19 19 18 17 16 15 15 15 14 14 13 13 13 12 12 13 13 13 13 14 14 14 14 14 14 15 15 16 19
12 11 10 9 10 11 12 13 13 14 15 16 17 18 19 19 19 19 20 20 21 19 17 16 15 13 11 12 14 17 18 20 21 20 19 18 18 17 15 14 14 14 14 13 13 13 13 12 12 12 12 13 13 13 14 14 14 14 15 15 16 18 19
11 10 9 9 10 11 12 12 13 14 15 16 17 18 19 19 19 19 20 21 21 20 18 16 14 13 12 14 16 18 19 20 20 18 18 18 17 15 13 13 12 12 12 12 12 13 13 12 12 12 12 13 12 12 13 13 11 12 14 14 15 17 19
10 9 9 9 10 11 11 12 13 14 15 16 16 17 18 19 19 19 19 20 21 20 18 17 16 15 15 16 18 18 17 17 17 16 16 17 15 12 12 13 14 14 13 12 12 12 12 13 13 14 13 13 11 10 10 10 8 9 14 15 14 15 16
10 9 9 9 10 10 11 12 12 13 14 15 16 16 16 17 17 18 18 18 19 19 18 17 17 17 17 17 17 16 15 15 15 15 16 16 15 13 14 15 16 16 14 12 11 11 12 12 12 13 13 13 11 9 11 11 9 10 14 15 15 15 14
9 9 9 10 10 10 11 11 12 13 14 14 14 14 14 14 15 15 15 16 16 17 17 16 16 15 15 15 15 15 14 14 14 15 15 15 15 15 15 15 15 14 13 12 11 12 12 11 11 11 11 11 10 9 10 11 10 11 13 15 15 13 10
10 10 10 10 10 10 10 11 11 12 13 13 13 13 13 12 12 12 13 13 14 14 14 14 14 13 13 13 14 14 14 13 14 15 15 15 14 13 13 14 14 13 12 11 12 13 14 14 14 13 11 10 11 10 9 8 7 7 8 9 11 9 6
10 10 9 10 10 10 10 10 11 11 12 12 12 12 11 11 11 10 10 11 11 11 12 12 12 12 12 12 12 12 12 13 14 15 14 13 13 13 13 13 13 12 11 12 12 12 13 12 12 12 13 13 13 12 9 8 7 6 5 5 6 6 6
9 9 9 9 9 9 10 10 10 11 11 11 11 10 10 9 9 8 8 9 9 10 10 11 11 11 10 10 10 11 11 13 14 14 14 14 15 14 14 13 12 12 12 13 13 12 11 11 10 11 12 12 13 11 10 9 9 8 7 7 7 6 5
9 9 9 9 9 9 9 10 10 11 10 10 10 9 8 8 7 7 7 8 9 9 9 9 10 10 10 10 10 11 11 12 13 13 13 13 13 13 13 12 12 12 12 12 12 12 11 11 11 11 12 12 11 9 9 9 9 8 7 7 7 7 7
9 8 8 8 8 8 9 10 10 10 10 9 9 8 8 7 6 6 7 7 8 8 8 9 10 10 11 11 11 11 12 12 12 12 13 13 12 11 11 11 11 11 11 11 12 12 12 12 12 12 11 11 9 9 8 8 7 8 8 8 8 9 9
8 7 6 6 7 8 9 9 9 9 9 8 8 7 7 6 6 6 7 7 8 8 8 9 10 12 12 12 12 12 12 12 12 12 13 13 12 11 10 10 10 10 11 11 12 12 12 12 12 11 10 9 9 9 9 9 9 9 9 9 10 10 10
6 6 6 6 7 8 8 8 8 7 7 6 6 6 6 6 6 6 7 8 8 8 9 10 11 11 11 11 11 11 12 12 12 12 13 12 11 11 10 10 10 11 11 11 11 12 12 12 12 11 11 10 10 10 9 9 9 9 9 9 9 9 9
6 6 5 6 6 7 7 7 6 5 4 4 4 5 5 6 6 7 7 8 8 8 9 9 9 10 10 10 10 10 10 11 11 11 11 10 10 10 11 12 13 13 12 12 13 13 12 11 11 12 12 12 11 11 10 10 10 10 9 9 9 9 9